[[{"header":{"parameterUnit":"m.s-1","parameterCategory":1,"la1":30.2991,"la2":30.254,"lo1":-89.0895,"lo2":-89.0444,"dy":0.0017,"dx":0.0017,"nx":28,"ny":28,"refTime":"2023-10-03T21:00:00:Z","depth":0,"parameterNumber":2,"parameterNumberName":"U-component_of_WINDS"},"data":[0,0,0,0,0,0,0,0,0,0,0,0,0,0,0,0,0,0,0,0,0,0,0,0,0,0,0,0,0,0,0,0,0,0,0,0,0,0,0,0,0,0,0,0,0,0,0,0,0,0,0,0,0,0,0,0,0,0,-2.6562,-2.6563,0,-2.6579,-2.6579,-2.6579,-2.6416,-2.6411,-2.6407,-2.6402,-2.6426,-2.643,-2.6435,0,0,0,0,0,0,0,0,0,0,0,0,0,-2.6395,-2.6399,-2.6562,-2.6563,-2.6563,-2.6579,-2.6579,-2.6579,-2.6416,-2.6411,-2.6405,-2.64,-2.6424,-2.643,-2.6436,0,0,0,0,0,0,0,0,0,0,0,0,0,-2.6446,-2.64,-2.6562,-2.6483,-2.6476,-2.6579,-2.6579,-2.6579,-2.6418,-2.6411,-2.6404,-2.6398,-2.6422,-2.6429,-2.6436,-2.6617,0,0,-2.6459,-2.6462,0,0,0,0,0,0,0,0,-2.6443,-2.6452,-2.6495,-2.6489,-2.6481,-2.6488,-2.6528,-2.6592,-2.6419,-2.644,-2.6402,-2.6394,-2.6452,-2.6457,-2.6475,-2.6618,-2.6619,-2.6459,-2.6464,-2.6467,-2.6469,0,0,0,0,0,0,0,-2.644,-2.645,-2.6569,-2.6496,-2.6487,-2.6449,-2.6448,-2.654,-2.6484,-2.6438,-2.6426,-2.643,-2.6447,-2.6468,-2.6474,-2.6619,-2.6459,-2.6465,-2.647,-2.6473,-2.6912,-2.6919,0,0,0,0,0,0,-2.6446,-2.6449,-2.6568,-2.6569,-2.6445,-2.6457,-2.6457,-2.6493,-2.6483,-2.6475,-2.6436,-2.6422,-2.6459,-2.6466,-2.6474,-2.6686,-2.6467,-2.6473,-2.6478,-2.6905,-2.6914,-2.6922,0,0,0,0,0,0,-2.6443,-2.6458,-2.6568,-2.6506,-2.6517,-2.6467,-2.6509,-2.6497,-2.6517,-2.6481,-2.6471,-2.6467,-2.6454,-2.6464,-2.6582,-2.6684,-2.6477,-2.6483,-2.6896,-2.6908,-2.6918,-2.711,0,0,0,0,0,0,-2.6439,-2.6458,-2.6525,-2.6508,-2.6521,-2.6675,-2.6515,-2.6502,-2.653,-2.6512,-2.6508,-2.65,-2.645,-2.6573,-2.659,-2.6691,-2.6489,-2.6887,-2.6902,-2.6914,-2.7095,-2.7126,-2.7154,0,0,0,0,0,-2.6434,-2.658,-2.653,-2.6545,-2.6603,-2.6681,-2.6688,-2.6624,-2.6538,-2.6606,-2.6583,-2.6501,-2.667,-2.6586,-2.6604,-2.6709,-2.6881,-2.6897,-2.6913,-2.7081,-2.712,-2.7153,0,0,0,0,0,0,-2.6613,-2.6577,-2.652,-2.6665,-2.6677,-2.6653,-2.6736,-2.6668,-2.6706,-2.6688,-2.661,-2.661,-2.6742,-2.6736,-2.6644,-2.6883,-2.676,-2.6781,-2.6882,-2.6919,-2.6948,-2.6947,-2.6495,0,0,0,0,0,-2.6669,-2.6733,-2.6698,-2.683,-2.6838,-2.6787,-2.6818,-2.6768,-2.6778,-2.6783,-2.6768,-2.6783,-2.6839,-2.6878,-2.6928,-2.7092,-2.709,-2.7173,-2.7203,-2.7227,-2.7247,-2.7334,-2.7371,-2.6976,-2.6976,-2.6976,0,0,-2.6786,-2.6774,-2.682,-2.6865,-2.6869,-2.6939,-2.6792,-2.6873,-2.6924,-2.6796,-2.6906,-2.6896,-2.6907,-2.705,-2.7112,-2.7049,-2.7355,-2.7248,-2.7268,-2.7274,-2.7355,-2.7393,-2.7426,-2.6987,-2.6985,-2.6983,0,0,-2.7035,-2.7032,-2.7141,-2.7147,-2.7153,-2.7117,-2.7144,-2.713,-2.7118,-2.7227,-2.7132,-2.7193,-2.7292,-2.7304,-2.7323,-2.7576,-2.7502,-2.7594,-2.775,-2.7836,-2.7867,-2.7894,-2.7986,-2.802,-2.7614,-2.7614,-2.7614,0,-2.7181,-2.728,-2.7206,-2.7293,-2.7316,-2.7201,-2.7312,-2.7322,-2.7345,-2.7365,-2.7294,-2.7415,-2.7414,-2.7558,-2.762,-2.7639,-2.7668,-2.7595,-2.7868,-2.7895,-2.7919,-2.8006,-2.804,-2.7625,-2.7624,-2.7623,-2.7622,0,-2.7459,-2.753,-2.7618,-2.7641,-2.7674,-2.7773,-2.7716,-2.7758,-2.7705,-2.7678,-2.7791,-2.7786,-2.7833,-2.7863,-2.7813,-2.8001,-2.7962,-2.7881,-2.7756,-2.7969,-2.8049,-2.8082,-2.7642,-2.7637,-2.7634,-2.7631,0,0,-2.7824,-2.7803,-2.7837,-2.7846,-2.7844,-2.7898,-2.7992,-2.8035,-2.8074,-2.8094,-2.8172,-2.8258,-2.8182,-2.8204,-2.8154,-2.823,-2.8432,-2.8139,-2.8138,-2.8195,-2.864,-2.8702,-2.8742,-2.8382,-2.8388,-2.8393,-2.864,0,-2.8067,-2.8224,-2.816,-2.8324,-2.8389,-2.828,-2.8361,-2.837,-2.8347,-2.8401,-2.8375,-2.8438,-2.8333,-2.8346,-2.8415,-2.8393,-2.8521,-2.8374,-2.8457,-2.846,-2.8459,-2.8783,-2.8849,-2.9082,-2.867,-2.8676,-2.8679,0,-2.8373,-2.8403,-2.8573,-2.8559,-2.8584,-2.8658,-2.8693,-2.8745,-2.8753,-2.8731,-2.8755,-2.8688,-2.8781,-2.8655,-2.8783,-2.8685,-2.8714,-2.8709,-2.8716,-2.8723,-2.8584,-2.88,-2.9154,-2.919,-2.8728,-2.8724,-2.872,0,-2.8623,-2.8706,-2.8818,-2.8829,-2.8816,-2.8871,-2.8868,-2.8869,-2.8899,-2.893,-2.8949,-2.8992,-2.9016,-2.9051,-2.8999,-2.8912,-2.9135,-2.9005,-2.9121,-2.9123,-2.9174,-2.9172,-2.954,-2.9192,-2.9191,-2.919,-2.919,0,-2.8903,-2.9011,-2.893,-2.9,-2.9118,-2.9044,-2.9165,-2.915,-2.9152,-2.9217,-2.9126,-2.919,-2.9115,-2.9173,-2.9133,-2.9246,-2.9257,-2.9243,-2.9232,-2.9252,-2.9255,-2.9272,-2.9255,-2.92,-2.9198,-2.9196,-2.9194,0,-2.9203,-2.9153,-2.9268,-2.9245,-2.9242,-2.9331,-2.9311,-2.9376,-2.9345,-2.943,-2.9446,-2.9399,-2.9463,-2.9413,-2.9475,-2.9448,-2.9597,-2.9562,-2.9595,-2.9585,-2.9705,-2.9695,-3.0098,-3.0148,-2.9767,-2.9771,-2.9774,0,-2.9385,-2.9466,-2.9451,-2.9487,-2.949,-2.955,-2.958,-2.951,-2.9545,-2.956,-2.9623,-2.9678,-2.9718,-2.9825,-2.9798,-2.9846,-2.9812,-2.995,-2.9819,-2.9837,-2.9816,-2.9812,-2.9821,-2.9977,-2.9982,-2.9986,-2.9988,0,-2.9715,-2.9686,-2.9731,-2.9769,-2.9807,-2.9833,-2.9853,-2.9889,-2.9817,-2.9862,-2.9924,-2.9956,-3.0018,-3.0075,-3.0113,-3.0112,-3.004,-3.003,-3.0059,-3.0082,-3.0098,-3.0092,-2.9669,-3.0021,-3.0018,-3.0016,-3.0014,-3.0012,-2.9962,-3.0029,-3.0029,-3.0083,-3.009,-3.011,-3.0169,-3.0145,-3.0195,-3.0239,-3.0196,-3.0272,-3.0278,-3.0321,-3.0329,-3.0389,-3.0332,-3.0375,-3.0386,-3.0398,-3.0415,-3.0087,-3.0395,-3.0394,-3.0393,-3.0393,-3.0392,0,-3.0288,-3.0282,-3.0332,-3.0362,-3.0405,-3.033,-3.0347,-3.0389,-3.0456,-3.0467,-3.0508,-3.058,-3.0634,-3.0611,-3.0659,-3.0712,-3.068,-3.0727,-3.0723,-3.0724,-3.0463,-3.0433,-3.0752,-3.0752,-3.0752,-3.0752,-3.0752,-3.0751,-3.0463,-3.0572,-3.0543,-3.0655,-3.0648,-3.072,-3.0737,-3.0756,-3.0764,-3.0848,-3.0891,-3.0875,-3.0873,-3.092,-3.0967,-3.0959,-3.0981,-3.1041,-3.1022,-3.0778,-3.0743,-3.0709,-3.068,-3.1046,-3.1046,-3.1278,-3.128,-3.1282]},{"header":{"parameterUnit":"m.s-1","parameterCategory":1,"la1":30.2991,"la2":30.254,"lo1":-89.0895,"lo2":-89.0444,"dy":0.0017,"dx":0.0017,"nx":28,"ny":28,"refTime":"2023-10-03T21:00:00:Z","depth":0,"parameterNumber":3,"parameterNumberName":"V-component_of_WINDS"},"data":[0,0,0,0,0,0,0,0,0,0,0,0,0,0,0,0,0,0,0,0,0,0,0,0,0,0,0,0,0,0,0,0,0,0,0,0,0,0,0,0,0,0,0,0,0,0,0,0,0,0,0,0,0,0,0,0,0,0,-0.8137,-0.8137,0,-0.8097,-0.8097,-0.8096,-0.8121,-0.8122,-0.8123,-0.8124,-0.8078,-0.8075,-0.8073,0,0,0,0,0,0,0,0,0,0,0,0,0,-0.8229,-0.8227,-0.8137,-0.8137,-0.8136,-0.8097,-0.8097,-0.8096,-0.812,-0.8122,-0.8123,-0.8125,-0.8079,-0.8076,-0.8073,0,0,0,0,0,0,0,0,0,0,0,0,0,-0.8189,-0.8226,-0.8137,-0.8144,-0.8144,-0.8097,-0.8097,-0.8096,-0.812,-0.8122,-0.8124,-0.8125,-0.8079,-0.8076,-0.8073,-0.8016,0,0,-0.8062,-0.806,0,0,0,0,0,0,0,0,-0.8191,-0.8185,-0.8143,-0.8143,-0.8143,-0.8116,-0.8112,-0.8069,-0.812,-0.8129,-0.8124,-0.8126,-0.8089,-0.8084,-0.8073,-0.8013,-0.8011,-0.8062,-0.8059,-0.8058,-0.8057,0,0,0,0,0,0,0,-0.8194,-0.8187,-0.8121,-0.8143,-0.8143,-0.8147,-0.8143,-0.8104,-0.8099,-0.8128,-0.813,-0.8125,-0.8089,-0.8076,-0.8072,-0.8011,-0.8062,-0.8059,-0.8056,-0.8055,-0.7898,-0.7896,0,0,0,0,0,0,-0.8197,-0.8189,-0.8122,-0.812,-0.8172,-0.8144,-0.814,-0.8123,-0.81,-0.8098,-0.8124,-0.8127,-0.8081,-0.8076,-0.807,-0.7999,-0.8058,-0.8055,-0.8053,-0.79,-0.7898,-0.7896,0,0,0,0,0,0,-0.8199,-0.8191,-0.8124,-0.8155,-0.8147,-0.814,-0.8121,-0.8121,-0.8108,-0.8096,-0.8095,-0.8112,-0.8083,-0.8075,-0.8029,-0.7998,-0.8053,-0.805,-0.7903,-0.79,-0.7897,-0.7858,0,0,0,0,0,0,-0.8201,-0.8191,-0.8171,-0.8155,-0.8145,-0.8085,-0.812,-0.8119,-0.8103,-0.8106,-0.8085,-0.8083,-0.8083,-0.8034,-0.8025,-0.7994,-0.8047,-0.7906,-0.7901,-0.7898,-0.7862,-0.7854,-0.7847,0,0,0,0,0,-0.8204,-0.8161,-0.817,-0.8162,-0.812,-0.8083,-0.8077,-0.808,-0.8101,-0.8079,-0.8071,-0.8084,-0.8004,-0.8029,-0.8019,-0.7987,-0.7907,-0.7903,-0.7898,-0.7865,-0.7855,-0.7847,0,0,0,0,0,0,-0.8173,-0.8159,-0.8169,-0.8119,-0.8102,-0.8087,-0.806,-0.807,-0.8046,-0.8049,-0.8052,-0.8047,-0.7998,-0.7988,-0.8016,-0.7929,-0.7958,-0.7951,-0.7936,-0.7927,-0.792,-0.7922,-0.8044,0,0,0,0,0,-0.816,-0.8133,-0.8122,-0.8079,-0.807,-0.8067,-0.8051,-0.8054,-0.8036,-0.8028,-0.8017,-0.7997,-0.7967,-0.7947,-0.7919,-0.7862,-0.7855,-0.7834,-0.7827,-0.7821,-0.7814,-0.7779,-0.7769,-0.7881,-0.7881,-0.7881,0,0,-0.8133,-0.8123,-0.8105,-0.8073,-0.806,-0.8029,-0.806,-0.8027,-0.8003,-0.8023,-0.7977,-0.7968,-0.7946,-0.7893,-0.7869,-0.7883,-0.7782,-0.7815,-0.781,-0.7807,-0.7773,-0.7763,-0.7753,-0.7877,-0.7878,-0.7878,0,0,-0.8068,-0.8059,-0.8021,-0.8008,-0.7988,-0.7986,-0.7977,-0.796,-0.7955,-0.791,-0.7923,-0.7894,-0.7843,-0.7826,-0.7811,-0.7738,-0.7747,-0.7729,-0.7689,-0.7655,-0.7646,-0.7638,-0.7608,-0.7598,-0.7722,-0.7722,-0.7722,0,-0.8037,-0.7993,-0.8,-0.7965,-0.7949,-0.7967,-0.7926,-0.7912,-0.7884,-0.7871,-0.7889,-0.7824,-0.781,-0.7751,-0.7733,-0.7722,-0.7708,-0.773,-0.7647,-0.7639,-0.7632,-0.7604,-0.7593,-0.772,-0.772,-0.772,-0.7721,0,-0.7953,-0.7922,-0.7894,-0.7867,-0.7848,-0.7811,-0.7809,-0.7789,-0.7794,-0.7789,-0.7741,-0.7726,-0.7693,-0.7681,-0.7685,-0.7621,-0.763,-0.7648,-0.7677,-0.7619,-0.7592,-0.7581,-0.7716,-0.7717,-0.7718,-0.7719,0,0,-0.7865,-0.7843,-0.7832,-0.7819,-0.7798,-0.7773,-0.7736,-0.7706,-0.7686,-0.7667,-0.7632,-0.7589,-0.7604,-0.7586,-0.7589,-0.756,-0.7498,-0.758,-0.7579,-0.7562,-0.7423,-0.7407,-0.7395,-0.7506,-0.7504,-0.7503,-0.7423,0,-0.7796,-0.7732,-0.7737,-0.7675,-0.7645,-0.7661,-0.7628,-0.761,-0.7604,-0.7576,-0.7569,-0.7536,-0.7561,-0.755,-0.7522,-0.7512,-0.747,-0.7518,-0.7471,-0.7469,-0.7472,-0.7382,-0.7366,-0.7292,-0.7413,-0.7412,-0.741,0,-0.7707,-0.7684,-0.762,-0.7602,-0.759,-0.756,-0.7531,-0.7505,-0.7484,-0.7482,-0.7462,-0.7469,-0.7428,-0.7461,-0.7402,-0.7435,-0.7416,-0.7408,-0.7405,-0.7398,-0.7434,-0.7368,-0.7269,-0.7256,-0.7395,-0.7396,-0.7397,0,-0.7645,-0.7598,-0.7553,-0.7542,-0.7521,-0.7499,-0.7489,-0.7471,-0.7451,-0.7426,-0.7413,-0.7383,-0.7365,-0.734,-0.7338,-0.7363,-0.7277,-0.7311,-0.7271,-0.7271,-0.725,-0.725,-0.7142,-0.7243,-0.7244,-0.7244,-0.7244,0,-0.7565,-0.7524,-0.7525,-0.7496,-0.745,-0.7455,-0.7408,-0.74,-0.7383,-0.7351,-0.7364,-0.7334,-0.7334,-0.7302,-0.73,-0.725,-0.7243,-0.7237,-0.7236,-0.7234,-0.7234,-0.7219,-0.7222,-0.7241,-0.7242,-0.7242,-0.7243,0,-0.7486,-0.7486,-0.7437,-0.7421,-0.7416,-0.7382,-0.7368,-0.7339,-0.7335,-0.7295,-0.7285,-0.7278,-0.7241,-0.7237,-0.7194,-0.7192,-0.713,-0.7136,-0.7137,-0.7136,-0.7095,-0.7098,-0.697,-0.6952,-0.7069,-0.7068,-0.7067,0,-0.7433,-0.7402,-0.7384,-0.7364,-0.7353,-0.7322,-0.7302,-0.7306,-0.7284,-0.7258,-0.7232,-0.7197,-0.7168,-0.7108,-0.7097,-0.7063,-0.7066,-0.7024,-0.7061,-0.7058,-0.7061,-0.7061,-0.7056,-0.7015,-0.7014,-0.7013,-0.7012,0,-0.7339,-0.734,-0.7313,-0.7284,-0.7261,-0.7239,-0.7218,-0.7201,-0.7201,-0.7176,-0.7139,-0.7117,-0.7073,-0.7036,-0.7003,-0.699,-0.6999,-0.7001,-0.6989,-0.6985,-0.6985,-0.698,-0.7113,-0.7003,-0.7004,-0.7005,-0.7005,-0.7006,-0.7269,-0.7241,-0.7223,-0.7191,-0.7176,-0.7156,-0.7128,-0.712,-0.709,-0.7055,-0.7059,-0.7017,-0.6995,-0.6951,-0.6936,-0.6901,-0.6915,-0.6899,-0.6894,-0.6889,-0.6883,-0.6994,-0.6895,-0.6896,-0.6896,-0.6896,-0.6896,0,-0.7171,-0.7161,-0.7132,-0.7102,-0.7077,-0.7091,-0.7068,-0.7045,-0.7008,-0.6988,-0.696,-0.6916,-0.688,-0.6866,-0.6831,-0.6805,-0.6808,-0.6795,-0.6795,-0.6791,-0.6875,-0.6887,-0.6793,-0.6793,-0.6793,-0.6793,-0.6793,-0.6793,-0.7117,-0.707,-0.7068,-0.7012,-0.7002,-0.6962,-0.6947,-0.6927,-0.6911,-0.6861,-0.6832,-0.6825,-0.6805,-0.6768,-0.6735,-0.6732,-0.6716,-0.67,-0.6698,-0.6775,-0.6786,-0.6795,-0.6806,-0.6697,-0.6697,-0.6617,-0.6616,-0.6615]}]]